Weather History for Lawton, OK

Change the Weather History Date:

Saturday, March 2, 2013

  Actual Average Record
Temperature  
Mean Temperature 42 °F -  
Max Temperature 57 °F 63 °F 86 °F (1974)
Min Temperature 26 °F 37 °F 9 °F (1980)
Degree Days  
Heating Degree Days 24    
Moisture  
Dew Point 28 °F    
Average Humidity 67    
Maximum Humidity 89    
Minimum Humidity 39    
Precipitation  
Precipitation 0.00 in - - ()
Sea Level Pressure  
Sea Level Pressure 30.34 in    
Wind  
Wind Speed 5 mph (WNW)    
Max Wind Speed 8 mph    
Max Gust Speed 17 mph    
Visibility 10 miles    
Events      
Averages and records for this station are not official NWS values.
T = Trace of Precipitation, MM = Missing Value Source: NWS Daily Summary

Daily Weather History Graph

Daily Weather History Graph

Search for Another Location

Airport:

Trip Planner

Search our weather history database for the weather conditions in past years. The results will help you decide how hot, cold, wet, or windy it might be!

Date:

Astronomy

Mar. 02, 2013 Rise Set
Actual Time 7:01 AM CST 6:30 PM CST
Civil Twilight 6:35 AM CST 6:56 PM CST
Nautical Twilight 6:06 AM CST 7:25 PM CST
Astronomical Twilight 5:37 AM CST 7:54 PM CST
Moon 11:55 PM CST (3/2) 9:45 AM CST (3/2)
Length of Visible Light 12h 20m
Length of Day
11h 29m
Waning Gibbous, 74% of the Moon is Illuminated
Mar 2
Waning Gibbous
Mar 4
Last Quarter
Mar 11
New
Mar 19
First Quarter
Mar 27
Full

Hourly Weather History & Observations

Time (CST) Temp. Windchill Dew Point Humidity Pressure Visibility Wind Dir Wind Speed Gust Speed Precip Events Conditions
12:28 AM 33.8 °F 28.6 °F 26.6 °F 75% 30.37 in 10.0 mi NW 5.8 mph - N/A   Mostly Cloudy
12:53 AM 33.1 °F 27.7 °F 26.1 °F 75% 30.39 in 10.0 mi NW 5.8 mph - N/A   Scattered Clouds
1:53 AM 30.9 °F 27.5 °F 25.0 °F 79% 30.40 in 10.0 mi NW 3.5 mph - N/A   Clear
2:41 AM 30.2 °F 26.7 °F 24.8 °F 80% 30.39 in 10.0 mi WNW 3.5 mph - N/A   Mostly Cloudy
2:53 AM 30.9 °F 25.2 °F 25.0 °F 79% 30.41 in 10.0 mi NW 5.8 mph - N/A   Overcast
3:30 AM 32.0 °F 25.6 °F 24.8 °F 75% 30.39 in 10.0 mi NW 6.9 mph - N/A   Scattered Clouds
3:53 AM 30.0 °F 23.2 °F 24.1 °F 79% 30.40 in 10.0 mi NNW 6.9 mph - N/A   Clear
4:53 AM 28.0 °F 20.0 °F 23.0 °F 81% 30.40 in 10.0 mi North 8.1 mph - N/A   Clear
5:53 AM 26.1 °F 20.5 °F 21.0 °F 81% 30.40 in 10.0 mi NNW 4.6 mph - N/A   Clear
6:53 AM 26.1 °F 21.9 °F 21.9 °F 84% 30.43 in 10.0 mi NNW 3.5 mph - N/A   Clear
7:53 AM 30.0 °F - 25.0 °F 82% 30.44 in 9.0 mi Calm Calm - N/A   Clear
8:53 AM 35.1 °F 31.0 °F 26.1 °F 70% 30.45 in 10.0 mi North 4.6 mph - N/A   Clear
9:53 AM 39.0 °F 34.8 °F 27.0 °F 62% 30.44 in 10.0 mi NNE 5.8 mph - N/A   Clear
10:53 AM 42.1 °F 40.2 °F 27.0 °F 55% 30.43 in 10.0 mi NE 3.5 mph - N/A   Clear
11:53 AM 45.0 °F 41.8 °F 28.9 °F 53% 30.40 in 10.0 mi South 5.8 mph - N/A   Clear
12:53 PM 48.0 °F - 30.0 °F 50% 30.35 in 10.0 mi SW 8.1 mph - N/A   Clear
1:53 PM 51.1 °F - 32.0 °F 48% 30.30 in 10.0 mi SSW 8.1 mph - N/A   Clear
2:53 PM 54.0 °F - 30.9 °F 41% 30.27 in 10.0 mi WSW 8.1 mph 17.3 mph N/A   Clear
3:53 PM 57.0 °F - 32.0 °F 39% 30.25 in 10.0 mi West 6.9 mph - N/A   Clear
4:53 PM 55.9 °F - 32.0 °F 40% 30.25 in 10.0 mi SSW 6.9 mph - N/A   Clear
5:53 PM 55.9 °F - 33.1 °F 42% 30.23 in 10.0 mi South 5.8 mph - N/A   Clear
7:53 PM 48.0 °F - 33.1 °F 56% 30.23 in 10.0 mi SE 8.1 mph - N/A   Clear
8:53 PM 44.1 °F 40.1 °F 34.0 °F 68% 30.23 in 10.0 mi ESE 6.9 mph - N/A   Clear
9:53 PM 43.0 °F 41.3 °F 33.1 °F 68% 30.23 in 10.0 mi SE 3.5 mph - N/A   Clear
10:53 PM 37.9 °F - 32.0 °F 79% 30.23 in 10.0 mi Calm Calm - N/A   Clear
11:53 PM 34.0 °F - 30.9 °F 89% 30.21 in 10.0 mi Calm Calm - N/A   Clear